This demonstration page uses our WeatherBlox Daily Observations layout. Learn more.

Left ArrowRight Arrow

39.51506, -84.39828

Hourly Observations for April 29, 2018

Temp ( °F °C ) Dew Point ( °F °C ) Humidity (%) Winds ( mph kmh ) Pressure ( in mb ) Visibility ( mi km ) Precip ( " mm )
12:15 am 00:15 Clear 42 5.8 21 -6 43 43 NW 9 15 30.18 1022 10 16 0.00 0.00
12:35 am 00:35 Clear 41 5 22 -5.7 46 46 NNW 5 7 30.24 1024 10 16 0.00 0.00
12:55 am 00:55 Clear 41 4.8 22 -5.8 47 47 Calm 30.24 1024 10 16 0.00 0.00
1:15 am 01:15 Clear 40 4.4 21 -6 47 47 Calm 30.24 1024 10 16 0.00 0.00
1:35 am 01:35 Clear 38 3.4 23 -5.2 54 54 Calm 30.24 1024 10 16 0.00 0.00
1:55 am 01:55 Clear 38 3.6 22 -5.8 51 51 Calm 30.24 1024 10 16 0.00 0.00
2:15 am 02:15 Clear 38 3.5 21 -6 50 50 Calm 30.24 1024 10 16 0.00 0.00
2:35 am 02:35 Clear 37 2.8 22 -5.8 54 54 Calm 30.24 1024 10 16 0.00 0.00
2:55 am 02:55 Clear 36 2.4 22 -5.5 56 56 Calm 30.24 1024 10 16 0.00 0.00
3:15 am 03:15 Clear 32 -0.2 26 -3.5 79 79 Calm 30.24 1024 10 16 0.00 0.00
3:35 am 03:35 Clear 33 0.7 28 -2.2 81 81 Calm 30.24 1024 10 16 0.00 0.00
3:55 am 03:55 Clear 31 -0.6 27 -2.9 85 85 Calm 30.24 1024 10 16 0.00 0.00
4:15 am 04:15 Clear 32 -0.1 27 -2.9 82 82 Calm 30.24 1024 10 16 0.00 0.00
4:35 am 04:35 Clear 31 -0.5 27 -2.9 84 84 Calm 30.27 1025 10 16 0.00 0.00
4:55 am 04:55 Clear 31 -0.4 27 -2.8 84 84 Calm 30.27 1025 10 16 0.00 0.00
5:15 am 05:15 Clear 30 -0.9 27 -2.8 87 87 Calm 30.27 1025 10 16 0.00 0.00
5:35 am 05:35 Clear 30 -0.9 27 -2.7 88 88 Calm 30.27 1025 10 16 0.00 0.00
5:55 am 05:55 Clear 29 -1.4 26 -3.3 87 87 Calm 30.27 1025 10 16 0.00 0.00
6:15 am 06:15 Clear 31 -0.3 25 -4 76 76 Calm 30.30 1026 10 16 0.00 0.00
6:35 am 06:35 Clear 28 -2.2 24 -4.5 84 84 Calm 30.30 1026 10 16 0.00 0.00
6:55 am 06:55 Sunny 28 -2 25 -4.1 86 86 Calm 30.30 1026 10 16 0.00 0.00
7:15 am 07:15 Sunny 31 -0.3 25 -3.8 78 78 Calm 30.30 1026 10 16 0.00 0.00
7:35 am 07:35 Sunny 33 0.5 27 -2.8 79 79 Calm 30.33 1027 10 16 0.00 0.00
7:55 am 07:55 Sunny 35 1.7 28 -2.1 76 76 Calm 30.33 1027 10 16 0.00 0.00
8:15 am 08:15 Sunny 38 3.1 29 -1.8 71 71 N 7 11 30.33 1027 10 16 0.00 0.00
8:35 am 08:35 Sunny 39 4 30 -1.2 69 69 NNE 7 11 30.33 1027 10 16 0.00 0.00
8:55 am 08:55 Sunny 41 4.9 31 -0.6 68 68 NNE 6 9 30.36 1028 10 16 0.00 0.00
9:15 am 09:15 Sunny 42 5.5 30 -1 63 63 NE 8 13 30.36 1028 10 16 0.00 0.00
9:35 am 09:35 Sunny 44 6.4 29 -1.4 58 58 ENE 10 17 30.36 1028 10 16 0.00 0.00
9:55 am 09:55 Sunny 45 7.2 29 -1.4 55 55 ENE 12 19 30.33 1027 10 16 0.00 0.00
10:15 am 10:15 Sunny 46 7.8 29 -1.6 52 52 ENE 10 17 30.33 1027 10 16 0.00 0.00
10:35 am 10:35 Sunny 47 8.4 30 -1.3 51 51 ENE 8 13 30.33 1027 10 16 0.00 0.00
10:55 am 10:55 Sunny 49 9.2 30 -0.9 50 50 NE 9 15 30.36 1028 10 16 0.00 0.00
11:15 am 11:15 Sunny 49 9.2 29 -1.4 48 48 NE 3 6 30.36 1028 10 16 0.00 0.00
11:35 am 11:35 Sunny 50 10.2 29 -1.8 43 43 ENE 9 15 30.36 1028 10 16 0.00 0.00
11:55 am 11:55 Sunny 51 10.6 29 -1.4 44 44 ENE 7 11 30.36 1028 10 16 0.00 0.00
12:15 pm 12:15 Sunny 51 10.5 27 -2.9 39 39 N 3 6 30.36 1028 10 16 0.00 0.00
12:35 pm 12:35 Sunny 52 10.9 26 -3.3 37 37 NNW 3 6 30.36 1028 10 16 0.00 0.00
12:55 pm 12:55 Sunny 53 11.9 26 -3.2 35 35 N 6 9 30.33 1027 10 16 0.00 0.00
1:15 pm 13:15 Sunny 54 12.2 27 -2.8 35 35 ENE 7 11 30.33 1027 10 16 0.00 0.00
1:35 pm 13:35 Sunny 55 12.8 27 -3 33 33 NNE 8 13 30.33 1027 10 16 0.00 0.00
1:55 pm 13:55 Sunny 55 12.8 27 -2.6 34 34 NNE 10 17 30.33 1027 10 16 0.00 0.00
2:15 pm 14:15 Sunny 55 13 26 -3.4 32 32 N 7 11 30.33 1027 10 16 0.00 0.00
2:35 pm 14:35 Sunny 55 13 26 -3.2 33 33 NE 6 9 30.33 1027 7 11 0.00 0.00
2:55 pm 14:55 Sunny 57 13.9 28 -2.3 33 33 N 7 11 30.33 1027 10 16 0.00 0.00
3:15 pm 15:15 Sunny 57 14 27 -3 31 31 NNE 3 6 30.30 1026 7 11 0.00 0.00
3:35 pm 15:35 Sunny 57 14.1 26 -3.6 29 29 ENE 5 7 30.30 1026 7 11 0.00 0.00
3:55 pm 15:55 Sunny 58 14.2 25 -3.9 29 29 E 7 11 30.30 1026 10 16 0.00 0.00
4:15 pm 16:15 Sunny 58 14.6 25 -3.8 28 28 N 8 13 30.30 1026 10 16 0.00 0.00
4:35 pm 16:35 Sunny 58 14.5 26 -3.6 29 29 ENE 5 7 30.30 1026 10 16 0.00 0.00
4:55 pm 16:55 Sunny 58 14.7 25 -3.8 28 28 N 8 13 30.30 1026 10 16 0.00 0.00
5:15 pm 17:15 Sunny 58 14.6 25 -4 28 28 ESE 3 6 30.27 1025 10 16 0.00 0.00
5:35 pm 17:35 Sunny 58 14.7 24 -4.5 26 26 W 3 6 30.27 1025 10 16 0.00 0.00
5:55 pm 17:55 Sunny 58 14.7 25 -3.8 28 28 Calm 30.27 1025 10 16 0.00 0.00
6:15 pm 18:15 Sunny 59 15.1 26 -3.5 28 28 W 7 11 30.27 1025 10 16 0.00 0.00
6:35 pm 18:35 Sunny 59 14.8 25 -4.1 27 27 W 5 7 30.27 1025 10 16 0.00 0.00
6:55 pm 18:55 Sunny 58 14.7 24 -4.6 26 26 WSW 6 9 30.27 1025 10 16 0.00 0.00
7:15 pm 19:15 Sunny 58 14.3 24 -4.6 27 27 WNW 5 7 30.27 1025 10 16 0.00 0.00
7:35 pm 19:35 Sunny 57 14.1 25 -3.7 29 29 NNW 3 6 30.27 1025 10 16 0.00 0.00
7:55 pm 19:55 Sunny 57 13.7 26 -3.4 31 31 Calm 30.27 1025 10 16 0.00 0.00
8:15 pm 20:15 Sunny 55 12.6 28 -2.2 36 36 Calm 30.27 1025 10 16 0.00 0.00
8:35 pm 20:35 Clear 51 10.6 36 2.1 56 56 Calm 30.27 1025 10 16 0.00 0.00
8:55 pm 20:55 Clear 48 8.9 35 1.4 60 60 Calm 30.27 1025 10 16 0.00 0.00
9:15 pm 21:15 Clear 47 8.4 35 1.8 63 63 Calm 30.27 1025 10 16 0.00 0.00
9:35 pm 21:35 Clear 44 6.7 36 2 72 72 Calm 30.27 1025 10 16 0.00 0.00
9:55 pm 21:55 Clear 43 6.3 33 0.8 68 68 Calm 30.27 1025 10 16 0.00 0.00
10:15 pm 22:15 Clear 42 5.6 33 0.5 70 70 N 5 7 30.30 1026 10 16 0.00 0.00
10:35 pm 22:35 Clear 41 4.9 32 0.2 72 72 N 5 7 30.30 1026 10 16 0.00 0.00
10:55 pm 22:55 Clear 41 5.1 32 -0.2 69 69 N 3 6 30.30 1026 10 16 0.00 0.00
11:15 pm 23:15 Clear 39 4.1 32 -0.1 74 74 Calm 30.30 1026 10 16 0.00 0.00
11:35 pm 23:35 Clear 39 3.8 32 0.2 78 78 Calm 30.33 1027 10 16 0.00 0.00
11:55 pm 23:55 Clear 38 3.5 32 -0.2 77 77 Calm 30.33 1027 10 16 0.00 0.00

Powered by AerisWeather